Tracking 20232 objects as of 21-Jan-2020
HD Live streaming from Space Station
objects crossing your sky now

ORBCOMM FM 27

Track ORBCOMM FM 27 now!
10-day predictions
ORBCOMM FM 27 is classified as:


NORAD ID: 25481
Int'l Code: 1998-053G
Perigee: 789.0 km
Apogee: 789.5 km
Inclination: 45.0 °
Period: 100.5 minutes
Semi major axis: 7160 km
RCS: 0.6177 m2 (medium)
Launch date: September 23, 1998
Source: ORBCOMM (ORB)
Launch site: Pegasus launched from Eastern Range Air Space (ERAS)
aabbcc
Your satellite tracking list
Your tracking list is empty




NASA's NSSDC Master Catalog

Two Line Element Set (TLE):
1 25481U 98053G   20020.58791833 -.00000047 +00000-0 +34125-4 0  9994
2 25481 045.0056 212.4882 0000358 164.6229 195.4628 14.32873039114231
Source of the keplerian elements: AFSPC